PST,Max TemperatureF,Mean TemperatureF,Min TemperatureF,Max Dew PointF,MeanDew PointF,Min DewpointF,Max Humidity, Mean Humidity, Min Humidity, Max Sea Level PressureIn, Mean Sea Level PressureIn, Min Sea Level PressureIn, Max VisibilityMiles, Mean VisibilityMiles, Min VisibilityMiles, Max Wind SpeedMPH, Mean Wind SpeedMPH, Max Gust SpeedMPH,PrecipitationIn, CloudCover, Events, WindDirDegrees
2011-12-1,35,30,24,14,6,0,64,40,25,30.34,30.27,30.20,10,10,10,30,18,43,0.00,1,,22
2011-12-2,44,29,14,9,3,-4,67,38,13,30.21,30.14,30.05,10,10,7,18,7,25,0.00,0,,26
2011-12-3,32,21,10,7,4,0,73,53,25,30.36,30.25,30.12,10,10,10,14,7,25,0.00,0,,89
2011-12-4,44,25,6,16,9,0,85,59,29,30.35,30.27,30.17,10,10,10,20,4,24,0.00,0,,31
2011-12-5,35,24,10,12,7,1,79,58,24,30.38,30.31,30.25,10,10,10,10,4,,0.00,0,,72
2011-12-6,42,24,6,27,7,1,79,60,25,30.42,30.38,30.34,10,10,10,8,2,,0.00,0,,230
2011-12-7,48,31,14,18,13,9,80,64,27,30.40,30.28,30.20,10,10,10,6,0,,0.00,0,,4
2011-12-8,46,30,14,18,14,10,93,71,27,30.33,30.26,30.20,10,10,10,10,2,,0.00,0,,356
2011-12-9,44,26,8,18,11,5,93,74,25,30.37,30.31,30.20,10,10,5,6,1,,0.00,0,,313
2011-12-10,48,26,5,18,7,1,93,63,15,30.30,30.16,30.04,10,10,0,8,0,,0.00,1,Fog,146
2011-12-11,44,28,12,16,11,7,86,63,21,30.03,29.88,29.78,10,10,10,10,1,,0.00,1,,199
2011-12-12,35,24,14,16,12,7,86,70,35,29.87,29.78,29.71,10,10,10,8,1,,0.00,1,,96
2011-12-13,39,22,6,19,12,5,93,78,33,30.09,29.97,29.87,10,10,10,12,1,,0.00,1,,153
2011-12-14,44,25,6,19,13,1,93,70,25,30.37,30.16,30.10,10,10,2,15,2,21,0.00,0,,229
2011-12-15,35,25,15,23,18,14,93,73,51,30.32,30.21,30.11,10,10,6,17,5,22,0.00,4,Snow,110
2011-12-16,41,28,14,19,14,10,93,74,36,30.41,30.36,30.31,10,10,10,12,4,16,0.00,0,,153
2011-12-17,44,26,8,16,11,7,92,71,29,30.39,30.30,30.20,10,10,4,6,1,,0.00,0,,236
2011-12-18,50,26,3,16,11,0,92,69,23,30.21,30.15,30.10,10,10,9,7,2,,0.00,1,,134
2011-12-19,37,26,15,23,16,12,93,72,44,30.25,30.19,30.12,10,10,10,14,3,22,0.00,2,,117
2011-12-20,44,25,6,14,6,1,93,61,17,30.24,30.19,30.13,10,10,10,10,3,17,0.00,0,,145
2011-12-21,42,25,8,14,4,-2,92,57,18,30.30,30.21,30.12,10,10,10,17,3,23,0.00,0,,55
2011-12-22,35,16,-2,1,-1,-8,78,58,22,30.58,30.43,30.30,10,10,10,10,3,,0.00,0,,135
2011-12-23,39,20,0,21,0,-6,85,62,21,30.63,30.59,30.36,10,10,10,5,1,,0.00,1,,146
2011-12-24,44,22,0,3,0,-4,92,52,15,30.64,30.56,30.49,10,10,10,6,1,,0.00,1,,32
2011-12-25,55,30,5,7,2,-2,78,50,9,30.52,30.42,30.28,10,10,10,12,1,16,0.00,1,,184
2011-12-26,55,30,6,10,3,0,72,46,11,30.36,30.31,30.26,10,10,10,13,3,17,0.00,0,,172
2011-12-27,53,34,14,23,14,7,80,58,22,30.43,30.37,30.30,10,10,10,9,2,,0.00,1,,161
2011-12-28,53,40,26,39,29,18,100,74,47,30.44,30.39,30.33,10,10,9,9,3,,0.00,4,,245
2011-12-29,51,40,28,37,33,28,100,81,47,30.33,30.22,30.16,10,10,10,13,5,18,0.00,3,,232
2011-12-30,50,36,21,32,25,1,93,65,14,30.21,30.16,30.10,10,10,10,23,9,33,0.00,1,,203
2011-12-31,53,34,15,25,14,-2,100,68,14,30.36,30.29,30.19,10,8,0,17,2,,0.00,0,Fog,177